Location: Focicchia
(42.2496°N, 9.2935°E)
Time: 22:53:17
(UTC+00:00)

UNK - Pass Details

Date: 07 June 2020
Orbit: 667 x 686 km, 98.1° (Epoch: 14 July)

Event Time Altitude Azimuth Distance (km) Brightness Sun altitude
Exits shadow 01:11:42 42° 173° (S) 962 4.1 -20.2°
Maximum altitude 01:13:16 83° 257° (WSW) 680 3.6 -20.1°
Drops below altitude 10° 01:17:53 10° 346° (NNW) 2,103 6.9 -19.7°
Sets 01:20:07 0° 347° (NNW) 3,020 7.8 -19.5°
